NI4CE-10 Weather Reports


time (UTC)temp
F
wind
direction
speed
knots
gust
knots
rain 1hr
in
rain 24hr
in
rain mn
in
humidity
%
barometer
mb
20260507190034 92 232 7.0 9.6 0.00 0.00 0.00 100 1017.6
20260507185534 92 255 4.3 10.4 0.00 0.00 0.00 100 1017.8
20260507185034 91 217 4.3 11.3 0.00 0.00 0.00 100 1017.9
20260507184534 91 282 4.3 10.4 0.00 0.00 0.00 100 1018.0
20260507184034 93 270 5.2 9.6 0.00 0.00 0.00 100 1018.0
20260507183534 92 271 5.2 11.3 0.00 0.00 0.00 100 1018.2
20260507183034 92 246 3.5 8.7 0.00 0.00 0.00 100 1018.1
20260507182534 92 260 7.8 12.2 0.00 0.00 0.00 100 1018.2
20260507182034 92 206 10.4 10.4 0.00 0.00 0.00 100 1018.2
20260507181535 92 285 5.2 11.3 0.00 0.00 0.00 100 1018.3
20260507181035 92 253 5.2 9.6 0.00 0.00 0.00 100 1018.3
20260507180535 91 278 7.0 12.2 0.00 0.00 0.00 100 1018.4
20260507180035 90 213 5.2 10.4 0.00 0.00 0.00 100 1018.6
20260507175835 91 323 0.9 12.2 0.00 0.00 0.00 100 1018.7
20260507175535 91 323 0.9 12.2 0.00 0.00 0.00 100 1018.7
20260507175035 92 319 0.9 10.4 0.00 0.00 0.00 100 1018.7
20260507174535 93 274 7.8 11.3 0.00 0.00 0.00 100 1018.7
20260507174035 92 236 3.5 12.2 0.00 0.00 0.00 100 1018.7
20260507173535 91 296 4.3 10.4 0.00 0.00 0.00 100 1018.8
20260507173323 91 267 3.5 12.2 0.00 0.00 0.00 100 1018.8
20260507173035 91 208 5.2 11.3 0.00 0.00 0.00 100 1018.8
20260507172535 92 248 4.3 13.0 0.00 0.00 0.00 100 1018.8
20260507172035 91 220 7.8 10.4 0.00 0.00 0.00 100 1018.8
20260507171535 91 267 3.5 12.2 0.00 0.00 0.00 100 1018.8
20260507171035 91 237 7.8 15.6 0.00 0.00 0.00 100 1018.8
20260507170535 89 158 2.6 11.3 0.00 0.00 0.00 100 1018.7
20260507170035 92 177 5.2 11.3 0.00 0.00 0.00 100 1018.9
20260507165535 91 255 6.1 12.2 0.00 0.00 0.00 100 1018.9
20260507165145 92 277 1.7 10.4 0.00 0.00 0.00 100 1018.9
20260507165035 90 300 2.6 11.3 0.00 0.00 0.00 100 1018.9
20260507164535 92 277 1.7 10.4 0.00 0.00 0.00 100 1018.9
20260507164035 90 262 8.7 12.2 0.00 0.00 0.00 100 1019.1
20260507163535 89 244 3.5 10.4 0.00 0.00 0.00 100 1019.0
20260507163035 91 226 8.7 13.0 0.00 0.00 0.00 100 1019.0
20260507162535 91 260 6.1 11.3 0.00 0.00 0.00 100 1019.1
20260507162035 92 236 3.5 9.6 0.00 0.00 0.00 100 1019.1
20260507161535 91 257 7.8 12.2 0.00 0.00 0.00 100 1019.1
20260507161035 90 246 7.0 11.3 0.00 0.00 0.00 100 1019.1
20260507160535 90 230 1.7 9.6 0.00 0.00 0.00 100 1019.2
20260507160035 89 230 7.0 13.0 0.00 0.00 0.00 100 1019.3
20260507155727 90 247 6.1 13.0 0.00 0.00 0.00 100 1019.3
20260507155535 90 247 6.1 13.0 0.00 0.00 0.00 100 1019.3
20260507155035 90 239 11.3 13.9 0.00 0.00 0.00 100 1019.3
20260507154535 88 241 3.5 9.6 0.00 0.00 0.00 100 1019.3
20260507154035 90 250 9.6 11.3 0.00 0.00 0.00 100 1019.3
20260507153535 88 230 7.8 11.3 0.00 0.00 0.00 100 1019.4
20260507153035 88 265 8.7 10.4 0.00 0.00 0.00 100 1019.3
20260507152535 88 277 6.1 11.3 0.00 0.00 0.00 100 1019.2
20260507152035 88 217 7.8 9.6 0.00 0.00 0.00 100 1019.3
20260507151535 87 210 7.0 10.4 0.00 0.00 0.00 100 1019.3
20260507151501 87 281 2.6 9.6 0.00 0.00 0.00 100 1019.3
20260507151035 87 225 7.8 11.3 0.00 0.00 0.00 100 1019.3
20260507150535 87 230 7.8 10.4 0.00 0.00 0.00 100 1019.3
20260507150035 87 216 6.1 9.6 0.00 0.00 0.00 100 1019.3
20260507145535 86 220 8.7 13.0 0.00 0.00 0.00 100 1019.3
20260507145035 86 243 7.0 14.8 0.00 0.00 0.00 100 1019.2
20260507144535 87 281 2.6 9.6 0.00 0.00 0.00 100 1019.3
20260507144035 85 236 4.3 9.6 0.00 0.00 0.00 100 1019.3
20260507143535 84 199 6.1 11.3 0.00 0.00 0.00 100 1019.2
20260507143035 85 237 7.8 9.6 0.00 0.00 0.00 100 1019.3
20260507142535 84 278 2.6 9.6 0.00 0.00 0.00 100 1019.3
20260507142036 85 223 5.2 9.6 0.00 0.00 0.00 100 1019.2
20260507141536 84 206 7.0 11.3 0.00 0.00 0.00 100 1019.2
20260507141255 83 196 8.7 9.6 0.00 0.00 0.00 100 1019.2
20260507141036 83 210 5.2 9.6 0.00 0.00 0.00 100 1019.2
20260507140536 83 196 8.7 9.6 0.00 0.00 0.00 100 1019.2
20260507140521 83 250 4.3 8.7 0.00 0.00 0.00 100 1019.1
20260507140036 83 234 7.0 8.7 0.00 0.00 0.00 100 1019.3
20260507135536 83 237 3.5 9.6 0.00 0.00 0.00 100 1019.3
20260507135036 83 243 2.6 10.4 0.00 0.00 0.00 100 1019.2
20260507134536 83 250 4.3 8.7 0.00 0.00 0.00 100 1019.1
20260507134036 82 226 3.5 7.0 0.00 0.00 0.00 100 1019.1
20260507133536 82 213 7.0 7.8 0.00 0.00 0.00 100 1019.1
20260507133036 81 203 2.6 7.0 0.00 0.00 0.00 100 1019.0
20260507132536 80 178 2.6 7.8 0.00 0.00 0.00 100 1019.0
20260507132036 80 177 6.1 7.0 0.00 0.00 0.00 100 1018.9
20260507131649 79 175 3.5 9.6 0.00 0.00 0.00 100 1018.9
20260507131536 79 175 3.5 9.6 0.00 0.00 0.00 100 1018.9
20260507131036 80 206 6.1 7.8 0.00 0.00 0.00 100 1018.8
20260507130536 79 219 7.0 7.0 0.00 0.00 0.00 100 1018.8
20260507130206 79 188 0.9 4.3 0.00 0.00 0.00 100 1018.9
20260507130036 79 188 0.9 4.3 0.00 0.00 0.00 100 1018.9
20260507125536 78 243 0.9 3.5 0.00 0.00 0.00 100 1018.8
20260507125036 78 158 1.7 3.5 0.00 0.00 0.00 100 1018.8
20260507124536 78 229 3.5 4.3 0.00 0.00 0.00 100 1018.9
20260507124036 77 232 3.5 3.5 0.00 0.00 0.00 100 1018.8
20260507123536 77 232 1.7 3.5 0.00 0.00 0.00 100 1018.8
20260507123036 76 215 2.6 2.6 0.00 0.00 0.00 100 1018.8
20260507122536 75 215 0.9 2.6 0.00 0.00 0.00 100 1018.8
20260507122036 74 172 0.0 1.7 0.00 0.00 0.00 100 1018.7
20260507121536 73 187 0.9 3.5 0.00 0.00 0.00 100 1018.7
20260507121036 72 201 0.0 0.0 0.00 0.00 0.00 100 1018.6
20260507120536 71 201 0.0 0.0 0.00 0.00 0.00 100 1018.6
20260507120036 70 201 0.0 0.0 0.00 0.00 0.00 100 1018.6
20260507115536 70 201 0.0 0.9 0.00 0.00 0.00 100 1018.5
20260507115036 69 42 0.0 0.0 0.00 0.00 0.00 100 1018.5
20260507114619 69 42 0.0 0.0 0.00 0.00 0.00 100 1018.5
20260507114536 69 42 0.0 0.0 0.00 0.00 0.00 100 1018.5
20260507114036 67 42 0.0 0.0 0.00 0.00 0.00 100 1018.4
20260507113536 66 42 0.0 0.0 0.00 0.00 0.00 100 1018.4
20260507113036 66 42 0.0 0.0 0.00 0.00 0.00 100 1018.5
20260507112536 64 42 0.0 0.0 0.00 0.00 0.00 100 1018.5
20260507112036 64 42 0.0 0.0 0.00 0.00 0.00 100 1018.4
20260507111536 63 42 0.0 0.0 0.00 0.00 0.00 100 1018.4
20260507111036 62 42 0.0 0.0 0.00 0.00 0.00 100 1018.4
20260507110536 62 42 0.0 0.0 0.00 0.00 0.00 100 1018.4
20260507110036 61 42 0.0 0.0 0.00 0.00 0.00 100 1018.3
20260507105536 61 42 0.0 0.0 0.00 0.00 0.00 100 1018.3
20260507105036 61 42 0.0 0.0 0.00 0.00 0.00 100 1018.2
20260507104536 61 42 0.0 0.0 0.00 0.00 0.00 100 1018.2
20260507104118 61 42 0.0 0.0 0.00 0.00 0.00 100 1018.1
20260507104036 61 42 0.0 0.0 0.00 0.00 0.00 100 1018.1
20260507103536 62 42 0.0 0.0 0.00 0.00 0.00 100 1018.1
20260507103116 62 42 0.0 0.0 0.00 0.00 0.00 100 1017.8
20260507103036 61 42 0.0 0.0 0.00 0.00 0.00 100 1018.0
20260507102536 62 42 0.0 0.0 0.00 0.00 0.00 100 1017.8
20260507102037 62 42 0.0 0.0 0.00 0.00 0.00 100 1018.0
20260507101537 62 42 0.0 0.0 0.00 0.00 0.00 100 1017.8
20260507101037 62 42 0.0 0.0 0.00 0.00 0.00 100 1017.8
20260507100537 63 42 0.0 0.0 0.00 0.00 0.00 100 1017.6
20260507100104 62 42 0.0 0.0 0.00 0.00 0.00 100 1017.7
20260507100037 63 42 0.0 0.0 0.00 0.00 0.00 100 1017.7
20260507095537 63 42 0.0 0.0 0.00 0.00 0.00 100 1017.7
20260507095037 63 42 0.0 0.0 0.00 0.00 0.00 100 1017.6
20260507094537 62 42 0.0 0.0 0.00 0.00 0.00 100 1017.7
20260507094037 63 42 0.0 0.0 0.00 0.00 0.00 100 1017.8
20260507093537 63 42 0.0 0.0 0.00 0.00 0.00 100 1017.7
20260507093321 63 42 0.0 0.0 0.00 0.00 0.00 100 1017.7
20260507093240 63 42 0.0 0.0 0.00 0.00 0.00 100 1017.7
20260507093037 63 42 0.0 0.0 0.00 0.00 0.00 100 1017.7
20260507092537 63 42 0.0 0.0 0.00 0.00 0.00 100 1017.6
20260507092037 64 42 0.0 0.0 0.00 0.00 0.00 100 1017.7
20260507091613 64 42 0.0 0.0 0.00 0.00 0.00 100 1017.6
20260507091537 64 42 0.0 0.0 0.00 0.00 0.00 100 1017.6
20260507091136 64 42 0.0 0.0 0.00 0.00 0.00 100 1017.6
20260507091037 64 42 0.0 0.0 0.00 0.00 0.00 100 1017.6
20260507090537 64 42 0.0 0.0 0.00 0.00 0.00 100 1017.5
20260507090037 64 42 0.0 0.0 0.00 0.00 0.00 100 1017.5
20260507085537 64 42 0.0 0.0 0.00 0.00 0.00 100 1017.4
20260507085037 65 42 0.0 0.0 0.00 0.00 0.00 100 1017.3
20260507084537 65 42 0.0 0.0 0.00 0.00 0.00 100 1017.2
20260507084329 66 42 0.0 0.0 0.00 0.00 0.00 100 1017.2
20260507084154 65 42 0.0 0.0 0.00 0.00 0.00 100 1017.1
20260507084037 65 42 0.0 0.0 0.00 0.00 0.00 100 1017.1
20260507083537 65 42 0.0 0.0 0.00 0.00 0.00 100 1017.1
20260507083037 64 42 0.0 0.0 0.00 0.00 0.00 100 1017.1
20260507082537 65 42 0.0 0.0 0.00 0.00 0.00 100 1017.0
20260507082132 65 42 0.0 0.0 0.00 0.00 0.00 100 1017.0
20260507082037 65 42 0.0 0.0 0.00 0.00 0.00 100 1017.0
20260507081537 65 42 0.0 0.0 0.00 0.00 0.00 100 1017.1
20260507081037 66 42 0.0 0.0 0.00 0.00 0.00 100 1017.3
20260507080537 66 42 0.0 0.0 0.00 0.00 0.00 100 1017.2
20260507080455 67 42 0.0 0.0 0.00 0.00 0.00 100 1017.2
20260507080037 67 42 0.0 0.0 0.00 0.00 0.00 100 1017.2
20260507075537 66 42 0.0 0.0 0.00 0.00 0.00 100 1017.2
20260507075037 66 42 0.0 0.0 0.00 0.00 0.00 100 1017.1
20260507074537 65 42 0.0 0.0 0.00 0.00 0.00 100 1017.0
20260507074037 65 42 0.0 0.0 0.00 0.00 0.00 100 1017.0
20260507073537 65 42 0.0 0.0 0.00 0.00 0.00 100 1017.0
20260507073037 65 42 0.0 0.0 0.00 0.00 0.00 100 1016.9
20260507072615 65 42 0.0 0.0 0.00 0.00 0.00 100 1017.0
20260507072537 65 42 0.0 0.0 0.00 0.00 0.00 100 1017.0
20260507072037 65 42 0.0 0.9 0.00 0.00 0.00 100 1017.0
20260507071537 65 46 0.0 0.0 0.00 0.00 0.00 100 1017.0
20260507071037 65 46 0.0 0.0 0.00 0.00 0.00 100 1017.1
20260507070623 65 46 0.0 0.0 0.00 0.00 0.00 100 1017.2
20260507070537 65 46 0.0 0.0 0.00 0.00 0.00 100 1017.2
20260507070037 65 46 0.0 0.0 0.00 0.00 0.00 100 1017.3
20260507065537 66 46 0.0 0.0 0.00 0.00 0.00 100 1017.4
20260507065037 66 46 0.0 0.0 0.00 0.00 0.00 100 1017.4
20260507064537 66 46 0.0 0.0 0.00 0.00 0.00 100 1017.6
20260507064037 66 46 0.0 0.0 0.00 0.00 0.00 100 1017.6
20260507063826 66 46 0.0 0.0 0.00 0.00 0.00 100 1018.1
20260507063537 66 46 0.0 0.0 0.00 0.00 0.00 100 1017.8
20260507063038 66 46 0.0 0.0 0.00 0.00 0.00 100 1018.1
20260507062537 66 46 0.0 0.0 0.00 0.00 0.00 100 1018.1
20260507062038 66 46 0.0 0.0 0.00 0.00 0.00 100 1018.0
20260507061538 66 46 0.0 0.0 0.00 0.00 0.00 100 1018.1
20260507061150 66 46 0.0 0.0 0.00 0.00 0.00 100 1018.3
20260507061038 66 46 0.0 0.0 0.00 0.00 0.00 100 1018.3
20260507060538 66 46 0.0 0.0 0.00 0.00 0.00 100 1018.3
20260507060038 66 46 0.0 0.0 0.00 0.00 0.00 100 1018.3
20260507055634 67 46 0.0 0.0 0.00 0.00 0.00 100 1018.5
20260507055538 67 46 0.0 0.0 0.00 0.00 0.00 100 1018.5
20260507055118 67 46 0.0 0.0 0.00 0.00 0.00 100 1018.4
20260507055038 67 46 0.0 0.0 0.00 0.00 0.00 100 1018.4
20260507055026 67 46 0.0 0.0 0.00 0.00 0.00 100 1018.6
20260507054613 66 46 0.0 0.0 0.00 0.00 0.00 100 1018.4
20260507054538 66 46 0.0 0.0 0.00 0.00 0.00 100 1018.4
20260507054226 67 46 0.0 0.0 0.00 0.00 0.00 100 1018.5
20260507054038 67 46 0.0 0.0 0.00 0.00 0.00 100 1018.5
20260507053538 67 46 0.0 0.0 0.00 0.00 0.00 100 1018.6
20260507053425 67 46 0.0 0.0 0.00 0.00 0.00 100 1018.9
20260507053038 67 46 0.0 0.0 0.00 0.00 0.00 100 1018.8
20260507052538 67 46 0.0 0.0 0.00 0.00 0.00 100 1018.8
20260507052038 67 46 0.0 0.0 0.00 0.00 0.00 100 1018.9
20260507051655 67 46 0.0 0.0 0.00 0.00 0.00 100 1019.0
20260507051538 68 46 0.0 0.0 0.00 0.00 0.00 100 1019.0
20260507051038 67 46 0.0 0.0 0.00 0.00 0.00 100 1019.0
20260507050538 68 46 0.0 0.0 0.00 0.00 0.00 100 1019.2
20260507050038 68 46 0.0 0.0 0.00 0.00 0.00 100 1019.2
20260507045538 68 46 0.0 0.0 0.00 0.00 0.00 100 1019.1
20260507045038 68 46 0.0 0.0 0.00 0.00 0.00 100 1019.1
20260507044540 69 97 0.0 0.0 0.00 0.00 0.00 100 1019.1
20260507044538 68 46 0.0 0.0 0.00 0.00 0.00 100 1019.0
20260507044038 69 46 0.0 0.0 0.00 0.00 0.00 100 1019.1
20260507043602 69 97 0.0 2.6 0.00 0.00 0.00 100 1019.1
20260507043538 69 97 0.0 0.0 0.00 0.00 0.00 100 1019.1
20260507043038 69 97 0.0 2.6 0.00 0.00 0.00 100 1019.1
20260507042538 69 45 0.0 3.5 0.00 0.00 0.00 100 1019.2
20260507042038 68 91 3.5 3.5 0.00 0.00 0.00 100 1019.1
20260507041538 68 11 0.0 0.0 0.00 0.00 0.00 100 1019.1
20260507041038 68 11 0.0 0.0 0.00 0.00 0.00 100 1019.0
20260507040538 68 11 0.0 0.0 0.00 0.00 0.00 100 1019.1
20260507040038 68 11 0.0 0.0 0.00 0.00 0.00 100 1019.0
20260507035538 68 11 0.0 0.0 0.00 0.00 0.00 100 1018.9
20260507035038 68 11 0.0 0.0 0.00 0.00 0.00 100 1018.9
20260507034538 69 11 0.0 0.0 0.00 0.00 0.00 100 1018.8
20260507034038 68 11 0.0 0.0 0.00 0.00 0.00 100 1018.7
20260507033538 68 11 0.0 0.0 0.00 0.00 0.00 100 1018.8
20260507033038 68 11 0.0 0.0 0.00 0.00 0.00 100 1018.8
20260507032611 69 11 0.0 0.0 0.00 0.00 0.00 100 1018.7
20260507032538 69 11 0.0 0.0 0.00 0.00 0.00 100 1018.7
20260507032038 69 11 0.0 0.0 0.00 0.00 0.00 100 1018.7
20260507031538 69 11 0.0 0.0 0.00 0.00 0.00 100 1018.6
20260507031132 69 11 0.0 0.0 0.00 0.00 0.00 100 1018.7
20260507031038 69 11 0.0 0.0 0.00 0.00 0.00 100 1018.7
20260507030538 69 11 0.0 0.0 0.00 0.00 0.00 100 1018.8
20260507030038 70 11 0.0 0.0 0.00 0.00 0.00 100 1018.8
20260507025538 70 11 0.0 0.0 0.00 0.00 0.00 100 1018.8
20260507025038 70 11 0.0 0.0 0.00 0.00 0.00 100 1018.7
20260507024612 70 11 0.0 0.0 0.00 0.00 0.00 100 1018.7
20260507024538 70 11 0.0 0.0 0.00 0.00 0.00 100 1018.7
20260507024038 70 11 0.0 0.0 0.00 0.00 0.00 100 1018.7
20260507023539 70 11 0.0 0.0 0.00 0.00 0.00 100 1018.7
20260507023039 70 11 0.0 0.0 0.00 0.00 0.00 100 1018.8
20260507022539 70 11 0.0 0.0 0.00 0.00 0.00 100 1018.8
20260507022137 71 11 0.0 0.0 0.00 0.00 0.00 100 1018.8
20260507022039 71 11 0.0 0.0 0.00 0.00 0.00 100 1018.8
20260507021539 71 11 0.0 0.0 0.00 0.00 0.00 100 1018.8
20260507021039 71 11 0.0 0.0 0.00 0.00 0.00 100 1018.8
20260507020715 72 11 0.0 0.0 0.00 0.00 0.00 100 1018.8
20260507020539 71 11 0.0 0.0 0.00 0.00 0.00 100 1018.8
20260507020039 72 11 0.0 0.0 0.00 0.00 0.00 100 1018.8
20260507015539 72 11 0.0 0.0 0.00 0.00 0.00 100 1018.8
20260507015039 72 11 0.0 0.0 0.00 0.00 0.00 100 1018.8
20260507014539 72 11 0.0 0.0 0.00 0.00 0.00 100 1018.8
20260507014039 72 11 0.0 0.0 0.00 0.00 0.00 100 1018.8
20260507013612 73 11 0.0 0.0 0.00 0.00 0.00 100 1018.7
20260507013539 73 11 0.0 0.0 0.00 0.00 0.00 100 1018.7
20260507013039 74 11 0.0 0.0 0.00 0.00 0.00 100 1018.7
20260507012539 74 11 0.0 0.0 0.00 0.00 0.00 100 1018.6
20260507012039 75 11 0.0 0.0 0.00 0.00 0.00 100 1018.6
20260507011539 75 11 0.0 1.7 0.00 0.00 0.00 100 1018.6
20260507011039 75 341 1.7 3.5 0.00 0.00 0.00 100 1018.6
20260507010539 75 288 1.7 1.7 0.00 0.00 0.00 100 1018.6
20260507010039 75 261 0.0 0.0 0.00 0.00 0.00 100 1018.5
20260507005539 76 261 0.0 0.0 0.00 0.00 0.00 100 1018.4
20260507005039 76 261 0.0 0.0 0.00 0.00 0.00 100 1018.5
20260507004539 77 261 0.0 0.0 0.00 0.00 0.00 100 1018.4
20260507004039 77 261 0.0 0.0 0.00 0.00 0.00 100 1018.4
20260507003539 78 261 0.0 2.6 0.00 0.00 0.00 100 1018.3
20260507003039 78 241 0.0 3.5 0.00 0.00 0.00 100 1018.4
20260507002539 79 288 0.0 2.6 0.00 0.00 0.00 100 1018.4
20260507002039 79 219 0.0 3.5 0.00 0.00 0.00 100 1018.4
20260507001539 80 281 0.0 2.6 0.00 0.00 0.00 100 1018.4
20260507001039 80 317 1.7 3.5 0.00 0.00 0.00 100 1018.3
20260507000539 80 306 1.7 3.5 0.00 0.00 0.00 100 1018.3
20260507000039 80 323 2.6 4.3 0.00 0.00 0.00 100 1018.2
20260506235539 80 275 0.9 4.3 0.00 0.00 0.00 100 1018.1
20260506235039 81 265 1.7 5.2 0.00 0.00 0.00 100 1018.1
20260506234539 81 264 1.7 5.2 0.00 0.00 0.00 100 1018.2
20260506234210 81 264 4.3 7.0 0.00 0.00 0.00 100 1018.2
20260506234039 81 264 4.3 7.0 0.00 0.00 0.00 100 1018.2
20260506233539 82 258 5.2 6.1 0.00 0.00 0.00 100 1018.2
20260506233039 82 268 5.2 7.0 0.00 0.00 0.00 100 1018.2
20260506232539 82 282 2.6 6.1 0.00 0.00 0.00 100 1018.2
20260506232039 82 264 1.7 8.7 0.00 0.00 0.00 100 1018.2
20260506231851 82 216 7.0 7.8 0.00 0.00 0.00 100 1018.1
20260506231539 82 216 7.0 7.8 0.00 0.00 0.00 100 1018.1
20260506231039 83 246 5.2 10.4 0.00 0.00 0.00 100 1018.1
20260506230819 83 241 5.2 9.6 0.00 0.00 0.00 100 1018.1
20260506230539 83 260 7.0 9.6 0.00 0.00 0.00 100 1018.1
20260506230039 83 247 5.2 9.6 0.00 0.00 0.00 100 1018.0
20260506225539 83 241 5.2 9.6 0.00 0.00 0.00 100 1018.1
20260506225039 84 237 4.3 11.3 0.00 0.00 0.00 100 1018.0
20260506224539 84 302 6.1 10.4 0.00 0.00 0.00 100 1018.0
20260506224039 84 241 4.3 12.2 0.00 0.00 0.00 100 1018.0
20260506223539 85 247 5.2 9.6 0.00 0.00 0.00 100 1018.0
20260506223040 85 254 5.2 8.7 0.00 0.00 0.00 100 1017.9
20260506222540 85 240 7.8 9.6 0.00 0.00 0.00 100 1017.9
20260506222040 85 258 8.7 10.4 0.00 0.00 0.00 100 1017.9
20260506221540 86 247 6.1 7.8 0.00 0.00 0.00 100 1017.9
20260506221040 87 272 7.0 9.6 0.00 0.00 0.00 100 1017.8
20260506220540 87 244 5.2 7.8 0.00 0.00 0.00 100 1017.8
20260506220040 87 278 6.1 10.4 0.00 0.00 0.00 100 1017.7
20260506215540 86 220 5.2 10.4 0.00 0.00 0.00 100 1017.8
20260506215040 87 243 6.1 10.4 0.00 0.00 0.00 100 1017.8
20260506214540 88 262 6.1 9.6 0.00 0.00 0.00 100 1017.8
20260506214040 88 277 3.5 9.6 0.00 0.00 0.00 100 1017.7
20260506213540 89 278 2.6 10.4 0.00 0.00 0.00 100 1017.7
20260506213040 89 248 5.2 9.6 0.00 0.00 0.00 100 1017.7
20260506212540 89 260 5.2 8.7 0.00 0.00 0.00 100 1017.7
20260506212040 90 275 6.1 9.6 0.00 0.00 0.00 100 1017.6
20260506211540 90 255 4.3 7.8 0.00 0.00 0.00 100 1017.7
20260506211040 91 305 1.7 7.0 0.00 0.00 0.00 100 1017.7
20260506210540 91 322 3.5 7.0 0.00 0.00 0.00 100 1017.7
20260506210040 91 277 2.6 7.0 0.00 0.00 0.00 100 1017.6
20260506205540 90 246 4.3 10.4 0.00 0.00 0.00 100 1017.6
20260506205233 89 213 5.2 9.6 0.00 0.00 0.00 100 1017.6
20260506205040 89 270 7.0 9.6 0.00 0.00 0.00 100 1017.6
20260506204540 89 213 5.2 9.6 0.00 0.00 0.00 100 1017.6
20260506204040 90 236 5.2 9.6 0.00 0.00 0.00 100 1017.5
20260506203540 90 209 6.1 8.7 0.00 0.00 0.00 100 1017.5
20260506203040 90 239 6.1 13.0 0.00 0.00 0.00 100 1017.6
20260506202540 91 233 7.8 12.2 0.00 0.00 0.00 100 1017.6
20260506202040 91 244 8.7 13.9 0.00 0.00 0.00 100 1017.7
20260506201711 91 240 7.8 13.0 0.00 0.00 0.00 100 1017.7
20260506201540 91 240 7.8 13.0 0.00 0.00 0.00 100 1017.7
20260506201040 92 267 3.5 14.8 0.00 0.00 0.00 100 1017.6
20260506200540 92 241 6.1 9.6 0.00 0.00 0.00 100 1017.7
20260506200040 92 258 9.6 10.4 0.00 0.00 0.00 100 1017.6
20260506195540 93 264 3.5 9.6 0.00 0.00 0.00 100 1017.6
20260506195145 93 326 0.9 9.6 0.00 0.00 0.00 100 1017.7
20260506195040 93 326 0.9 9.6 0.00 0.00 0.00 100 1017.7
20260506194841 93 253 7.0 7.8 0.00 0.00 0.00 100 1017.7
20260506194540 93 253 7.0 7.8 0.00 0.00 0.00 100 1017.7
20260506194040 93 84 1.7 4.3 0.00 0.00 0.00 100 1017.8
20260506193540 92 91 2.6 3.5 0.00 0.00 0.00 100 1017.9
20260506193406 92 144 3.5 7.8 0.00 0.00 0.00 100 1018.0
20260506193040 92 144 3.5 7.8 0.00 0.00 0.00 100 1018.0
20260506192933 94 130 3.5 6.1 0.00 0.00 0.00 100 1017.9
20260506192540 94 130 3.5 6.1 0.00 0.00 0.00 100 1017.9
20260506192040 94 246 1.7 6.1 0.00 0.00 0.00 100 1017.9
20260506191719 92 278 0.9 6.1 0.00 0.00 0.00 100 1018.0
20260506191540 94 244 0.0 8.7 0.00 0.00 0.00 100 1017.9
20260506191040 92 333 1.7 6.1 0.00 0.00 0.00 100 1018.0
20260506190540 92 278 0.9 6.1 0.00 0.00 0.00 100 1018.0